Location: Charlottesville
(38.0290°N, 78.4770°W)
Time: 00:28:39
(UTC-05:00)

Tiangong 1 - Pass Details

Date: 09 October 2017
Orbit: 276 x 303 km, 42.8° (Epoch: 12 December)

Event Time Altitude Azimuth Distance (km) Brightness Sun altitude
Rises 20:33:25 0° 289° (WNW) 2,056 6.2 -22.2°
Reaches altitude 10° 20:35:35 10° 301° (WNW) 1,210 4.5 -22.7°
Enters shadow 20:36:40 19° 317° (NW) 842 3.4 -22.9°
